Regional Weather Roundup
Issued by NWS Grand Forks, ND

Home | Current Version | Previous Version | Graphics & Text | Print | Product List | Glossary On
Versions: 1 2 3 4 5 6 7 8 9 10 11 12 13 14 15 16 17 18 19 20 21 22 23 24 25 26 27 28 29 30 31 32 33 34 35 36 37 38 39 40 41 42 43 44 45 46 47 48 49 50
000
ASUS43 KFGF 210110
RWRFGF
PRAIRIE TO PINES  WEATHER ROUNDUP
NATIONAL WEATHER SERVICE EASTERN NORTH DAKOTA/GRAND FORKS ND
800 PM CDT SUN AUG 20 2017

 **SATELLITE DATA USED TO AUGMENT SKY COVER AT AUTOMATED STATIONS**
 *****  WEATHER ACROSS EASTERN NORTH DAKOTA  *****

CITY           SKY/WX    TMP DP  RH WIND       PRES   REMARKS
GRAND FORKS    FAIR      72  51  47 W3        29.98R
GRAND FRKS AFB FAIR      71  51  47 CALM      29.99S
DEVILS LAKE    NOT AVBL
FARGO          FAIR      70  50  49 SW5       30.00S
WAHPETON ARPT  FAIR      66  52  59 W5        30.02S
$$

 ***** WEATHER ACROSS CENTRAL AND WESTERN NORTH DAKOTA  *****

CITY           SKY/WX    TMP DP  RH WIND       PRES   REMARKS
BISMARCK       CLOUDY    67  53  61 SW3       30.03F
MINOT          FAIR      74  41  30 SE6       29.98S
JAMESTOWN      FAIR      67  58  72 CALM      30.02R
MINOT AFB      FAIR      71  41  34 SE5       29.96F
GARRISON         N/A     67  49  52 S6        30.00F
WILLISTON      FAIR      75  44  33 SE8       29.96S
DICKINSON      FAIR      66  45  46 SE13      30.00F
HETTINGER      FAIR      67  45  45 E14       30.03S
$$

 *****  OTHER AIRPORT OBSERVATIONS IN OUR AREA  *****

CITY           SKY/WX    TMP DP  RH WIND       PRES   REMARKS
WALHALLA       FAIR      72  68  88 CALM      29.97S
GRAFTON AIRPOR FAIR      72  48  43 NW5       29.99S
VALLEY CITY AR   N/A     66  57  72 CALM      30.04R
CANDO          FAIR      68  50  52 SW5       30.02R
CAVALIER APRT  FAIR      70  50  49 W5        29.97R
GWINNER        CLEAR     64  59  82 CALM      30.03S
SHEYENNE NWR     N/A     66  56  70 SW3       29.95
ROLLA          FAIR      64  48  55 SW5       30.01S
 ***** THE ABOVE OBSERVATIONS ARE NON NWS ARE NOT QUALITY
       CONTROLLED AND MAY MIS-REPORT RAIN FOR SNOW...
$$

  *****  WEATHER ACROSS NORTHERN MINNESOTA  *****

CITY           SKY/WX    TMP DP  RH WIND       PRES   REMARKS
FLAG ISLAND      N/A     72  50  46 CALM      29.93S HAZE
WARROAD        FAIR      70  52  52 W3        29.96S
ROSEAU         FAIR      72  52  49 CALM      29.97R
HALLOCK        FAIR      72  41  33 NW3       29.96S
THF RVR FALLS  FAIR      70  44  39 W5        30.00R
BAUDETTE       FAIR      68  48  48 W5        29.96R
WASKISH        FAIR      70  50  49 W7        29.98R
CROOKSTON      FAIR      72  46  40 CALM      30.00R
STEPHEN NDAWN    N/A     68  48  49 W3          N/A
GREENBUSH NDAW   N/A     66  50  55 W2          N/A
$$
  *****  WEATHER ACROSS CENTRAL AND WEST MINNESOTA  *****

CITY           SKY/WX    TMP DP  RH WIND       PRES   REMARKS
FOSSTON        FAIR      70  46  43 W3        30.01S
BEMIDJI        FAIR      68  50  52 W6        30.00S
PARK RAPIDS    FAIR      67  57  70 SW5       30.02R
ELBOW LAKE     FAIR      66  60  79 W5        30.03S
WADENA         FAIR      66  55  68 CALM      30.02S
DETROIT LAKES  FAIR      66  54  63 W3        30.04R
MOORHEAD       FAIR      68  55  64 SW3       30.02R
FERGUS FALLS   FAIR      66  57  72 NW5       30.02R
MORRIS MN      FAIR      66  63  88 NW3       30.01S
STAPLES        FAIR      64  57  77 W3        30.02S
$$
  *****  WEATHER ELSEWHERE ACROSS MINNESOTA  *****

CITY           SKY/WX    TMP DP  RH WIND       PRES   REMARKS
DULUTH         FAIR      66  57  72 W6        29.98R
INTRNTL FALLS  FAIR      66  50  56 W5        29.95R
ELY            FAIR      64  54  68 CALM      29.96R
CLOQUET        FAIR      66  55  68 W3        29.99R
WHEATON        FAIR      66  61  82 CALM      30.04S
BRAINERD       FAIR      69  57  65 W3        30.01R
HIBBING        FAIR      65  56  72 W3        29.98R
ALEXANDRIA     FAIR      68  58  70 W6        30.04S
SAINT CLOUD    FAIR      71  61  70 N5        30.00R
MINNEAPOLIS    FAIR      79  65  62 NW12      29.97R
$$

  *****  WEATHER ACROSS SOUTH DAKOTA  *****

CITY           SKY/WX    TMP DP  RH WIND       PRES   REMARKS
SIOUX FALLS    FAIR      74  63  68 NE12      29.99R
BROOKINGS      FAIR      69  56  62 E8        30.02F
WATERTOWN      FAIR      67  53  61 CALM      30.01S
HURON          FAIR      70  55  59 SE10      29.97F
SISSETON         N/A     66  64  93 NW3       30.01R
ABERDEEN       MOCLDY    65  57  75 NE6       30.03F
MITCHELL       FAIR      74  65  73 NE7       29.98R
PIERRE         FAIR      71  47  42 E8        29.98F
MOBRIDGE       MOCLDY    66  54  65 E9        30.01S
RAPID CITY     FAIR      78  54  43 SE12      29.98F
$$

  *****  SOME WEATHER IN NEARBY STATES *****

CITY           SKY/WX    TMP DP  RH WIND       PRES   REMARKS
GLASGOW MT     FAIR      80  37  21 W8        29.88S
GREAT FALLS MT FAIR      77  24  14 VRB3      29.99S
CHEYENNE WY    FAIR      78  41  26 S13       30.14F
SCOTTSBLUFF NE FAIR      82  60  47 SE10      29.98S
OMAHA NE       FAIR      80  66  62 E8        29.94S
DES MOINES IA  FAIR      77  65  66 CALM      29.96S
DAVENPORT IA   FAIR      73  70  90 E7        30.00S
CHICAGO IL     CLOUDY    81  70  69 S10       30.02R
EAU CLAIRE WI  FAIR      76  68  76 SW3       29.95R
LA CROSSE WI   FAIR      83  68  60 S8        29.96R
$$

  *****  SOME NATIONAL WEATHER *****

CITY           SKY/WX    TMP DP  RH WIND       PRES   REMARKS
LA GUARDIA NY  FAIR      80  61  52 NW8       30.10R
RALEIGH NC     FAIR      84  68  58 SE6       30.14R
ATLANTA GA     FAIR      86  67  52 SE5       30.12R
NEW ORLEANS LA FAIR      89  72  56 VRB3      30.02R HX  96
OKLAHOMA CITY  FAIR      85  69  58 S9        29.96S
ALBUQUERQUE NM MOCLDY    73  50  44 E8        30.12F
SALT LAKE CITY FAIR      93  39  15 N10       29.94F
LOS ANGELES CA PTSUNNY   70  62  76 W15       29.89R
BOISE ID       FAIR      83  34  17 NW10      29.96F
SEATTLE WA     FAIR      75  50  41 N10       30.10F
$$

*** WEATHER ACROSS MANITOBA...SASKATCHEWAN AND ONTARIO ***
                ***ONTARIO***

CITY           SKY/WX    TMP DP  RH WIND       PRES   REMARKS
GERALDTON      PTCLDY    64  64 100 W3        29.82R
THUNDER BAY    PTCLDY    70  55  60 W7        29.86R
SIOUX LOOKOUT  NOT AVBL
TORONTO        PTCLDY    75  61  60 NW6       30.07R
BIG TROUT LK   CLEAR     64  48  55 W12G17    29.69R
PICKLE LAKE    MOCLDY    70  43  37 W14       29.80R
DRYDEN         CLEAR     68  45  42 W8        29.91R
KENORA         PTCLDY    70  45  40 NW6       29.94R
$$
                *** MANITOBA***

CITY           SKY/WX    TMP DP  RH WIND       PRES   REMARKS
BRANDON        PTCLDY    63  46  55 SW8       29.95S
DAUPHIN        CLEAR     68  45  42 W9        29.91R
ISLAND LAKE    NOT AVBL
PILOT MOUND      N/A     68  43  40 W3          N/A
THE PAS        PTCLDY    66  45  45 SW5       29.78R
THOMPSON       MOCLDY    59  54  82 W7        29.68S
WINNIPEG       PTCLDY    68  50  52 W3        29.93S
LYNN LAKE      MOCLDY    61  48  63 MISG      29.67R
CHURCHILL      LGT RAIN  54  54 100 E10       29.55R
GILLAM         MOCLDY    66  52  59 W18G26    29.58R
$$
                ***SASKATCHEWAN***

CITY           SKY/WX    TMP DP  RH WIND       PRES   REMARKS
ESTEVAN        CLOUDY    68  41  37 E6        29.96S
KINDERSLEY     PTSUNNY   66  39  37 NE13G18   29.94R
LLOYDMINSTER   MOSUNNY   61  45  55 W13       29.92S
PRINCE ALBERT  PTSUNNY   66  39  37 W17       29.87S
REGINA         CLOUDY    68  34  28 E10       29.92F
YORKTON        CLOUDY    63  45  51 SW8       29.94S
N. BATTLEFORD  SUNNY     63  43  48 W10       29.94R
LA RONGE       PTSUNNY   64  41  42 W7        29.78R
SASKATOON      PTSUNNY   66  39  37 NW8       29.93R
SWIFT CURRENT  MOSUNNY   72  34  25 W14G20    29.87R
$$
NOTE: THESE ARE AUTOMATED STATIONS WITH LIMITED QUALITY CONTROL
      "FAIR" INDICATES FEW OR NO CLOUDS BELOW 12,000 FEET WITH NO
      SIGNIFICANT WEATHER AND/OR OBSTRUCTIONS TO VISIBILITY.
      SKY/WX - SKY CONDITION AND SIGNIFICANT WEATHER.
      TMP - AIR TEMPERATURE.    DP   - DEWPOINT TEMPERATURE.
      RH  - RELATIVE HUMIDITY.  PRES - PRESSURE.
      HX  - HEAT INDEX.         WCI  - WIND CHILL INDEX.
$




USA.gov is the U.S. government's official web portal to all federal, state and local government web resources and services.